Location: Kerentrech
(47.7567°N, 3.3595°W)
Time: 17:04:20
(UTC+00:00)

SL-16 R/B - Pass Details

Date: 17 February 2020
Orbit: 843 x 847 km, 71.0° (Epoch: 07 April)

Event Time Altitude Azimuth Distance (km) Brightness Sun altitude
Exits shadow 04:42:17 60° 190° (S) 961 2.3 -26.6°
Maximum altitude 04:43:20 82° 115° (ESE) 860 2.2 -26.4°
Drops below altitude 10° 04:49:02 10° 29° (NNE) 2,475 5.1 -25.5°
Sets 04:51:29 0° 29° (NNE) 3,414 5.9 -25.1°
